Location: Gouy
(50.0008°N, 3.2556°E)
Time: 19:44:54
(UTC+00:00)

Okean 2 - Pass Details

Date: 23 May 2024
Orbit: 540 x 553 km, 82.5° (Epoch: 14 June)

Event Time Altitude Azimuth Distance (km) Brightness Sun altitude
Exits shadow 00:50:35 31° 150° (SSE) 976 4.2 -17.8°
Maximum altitude 00:52:07 48° 95° (E) 713 3.9 -17.8°
Drops below altitude 10° 00:55:58 10° 20° (NNE) 1,816 7.3 -17.6°
Sets 00:58:11 0° 15° (NNE) 2,714 8.6 -17.5°
